Location: Phoenix
(33.4480°N, 112.0730°W)
Time: 06:29:12
(UTC-07:00)

Cosmos 1470 Rocket - Visible Passes

Search period start: 06 May 2015 00:00
Search period end: 16 May 2015 00:00
Orbit: 604 x 635 km, 82.5° (Epoch: 05 May)

Date Brightness Start Highest point End Pass type
(mag) Time Alt. Az. Time Alt. Az. Time Alt. Az.
06 May 5.2 03:26:06 18° SE 03:28:31 31° E 03:32:22 10° NNE visible
06 May 5.2 05:03:43 10° WSW 05:06:32 16° WNW 05:09:12 10° NW visible
07 May 3.8 03:44:01 30° SSE 03:46:01 65° E 03:50:19 10° NNE visible
08 May 3.5 04:01:54 34° SSW 04:03:34 60° W 04:07:52 10° N visible
09 May 5.9 02:42:33 16° ESE 02:43:33 17° E 02:46:27 10° NE visible
09 May 4.5 04:19:45 23° WSW 04:21:15 29° WNW 04:25:02 10° NNW visible
10 May 4.8 03:00:22 32° ESE 03:01:00 33° E 03:04:57 10° NNE visible
10 May 5.3 04:37:33 13° W 04:39:05 15° WNW 04:41:32 10° NW visible
11 May 3.6 03:18:08 66° SE 03:18:30 71° E 03:22:51 10° N visible
12 May 3.6 03:35:53 54° W 03:36:04 55° W 03:40:22 10° N visible
13 May 5.8 02:16:25 18° E 02:16:25 18° E 02:19:08 10° NE visible
13 May 4.6 03:53:36 27° W 03:53:46 27° WNW 03:57:28 10° NNW visible
14 May 4.9 02:34:07 35° ENE 02:34:07 35° ENE 02:37:31 10° NNE visible
14 May 5.4 04:11:17 14° WNW 04:11:36 14° WNW 04:13:48 10° NW visible
15 May 4.0 02:51:47 58° NNE 02:51:47 58° NNE 02:55:21 10° N visible
